Location: Newark
(43.6583°N, 1.6617°E)
Time: 02:05:16
(UTC+00:00)

Courier 1B - Pass Details

Date: 31 August 2019
Orbit: 962 x 1209 km, 28.3° (Epoch: 17 October)

Event Time Altitude Azimuth Distance (km) Brightness Sun altitude
Rises 13:00:53 0° 212° (SSW) 4,066 11.3 52.0°
Reaches altitude 10° 13:05:21 10° 190° (S) 3,069 10.9 51.6°
Maximum altitude 13:09:03 14° 160° (SSE) 2,719 10.4 51.3°
Drops below altitude 10° 13:12:40 10° 130° (SE) 2,991 10.3 51.0°
Sets 13:16:54 0° 108° (ESE) 3,896 10.5 50.6°
